Regional Weather Roundup
Issued by NWS

Home | Current Version | Previous Version | Graphics & Text | Print | Product List | Glossary Off
Versions: 1 2 3 4 5 6 7 8 9 10 11 12 13 14 15 16 17 18 19 20 21 22 23 24 25 26 27 28 29 30 31 32 33 34 35 36 37 38 39 40 41 42 43 44 45 46 47 48 49 50

000
ASUS43 KTOP 242159
RWRKS

WEATHER ROUNDUP FOR KANSAS
NATIONAL WEATHER SERVICE GOODLAND KS
400 PM CST SAT FEB 24 2018

NOTE:  "FAIR" INDICATES FEW OR NO CLOUDS BELOW 12,000 FEET WITH NO
SIGNIFICANT WEATHER AND/OR OBSTRUCTIONS TO VISIBILITY.

KSZ001>006-013>018-027>032-041>047-242300-
NORTHWEST KANSAS

CITY           SKY/WX    TMP DP  RH WIND       PRES   REMARKS
GOODLAND       MOSUNNY   41   6  23 NW29G39   29.76R
HAYS           PTSUNNY   46  26  45 NW17G26   29.77S
HILL CITY      SUNNY     44  14  29 NW23G33   29.77R
RUSSELL        MOSUNNY   44  33  65 W15       29.76F
$$

KSZ061>065-074>080-084>089-242300-
SOUTHWEST KANSAS

CITY           SKY/WX    TMP DP  RH WIND       PRES   REMARKS
DODGE CITY     MOSUNNY   49  17  28 NW15G26   29.79S
GARDEN CITY    MOSUNNY   49  10  20 NW17G25   29.78S
GREAT BEND     MOSUNNY   43  30  60 W13       29.79S
LIBERAL        MOSUNNY   49  23  36 N16G22    29.82F
$$

KSZ066>073-081>083-090>101-242300-
SOUTHEAST KANSAS

CITY           SKY/WX    TMP DP  RH WIND       PRES   REMARKS
CHANUTE        CLOUDY    41  37  86 W20       29.78R
COFFEYVILLE    CLOUDY    44  39  82 W18       29.80R
HUTCHINSON     CLOUDY    39  33  79 W14G22    29.80R WCI  31
MEDICINE LODGE   N/A     44  34  67 W8        29.82F
NEWTON         CLOUDY    35  32  88 W17G23    29.80R WCI  25
PARSONS        CLOUDY    43  41  93 W13       29.80R
WICHITA INTL   CLOUDY    40  33  76 W16G26    29.82R WCI  31
WICHITA JABRA  CLOUDY    38  34  85 W13G23    29.81R WCI  30
WICHITA MCCONL CLOUDY    39  32  76 W18       29.81R WCI  29
WINFIELD       CLOUDY    41  38  89 W14       29.83R
$$

KSZ007>012-019>026-033>040-048>060-102>105-242300-
NORTHEAST KANSAS

CITY           SKY/WX    TMP DP  RH WIND       PRES   REMARKS
CONCORDIA      CLOUDY    32  29  88 W14       29.76S WCI  22
EMPORIA        CLOUDY    35  32  88 W16G22    29.76R WCI  25
LAWRENCE       CLOUDY    38  37  97 W15       29.73R FOG     WCI  29
MANHATTAN      CLOUDY    36  31  82 W12       29.77R WCI  28
OLATHE IND     CLOUDY    39  38  96 W14G24    29.72R FOG     WCI  31
OLATHE EXE     CLOUDY    38  38 100 W12       29.70R WCI  30
SALINA         CLOUDY    37  32  82 W15       29.80S WCI  28
TOPEKA BILLARD CLOUDY    37  36  96 W13       29.74R WCI  29
TOPEKA FORBES  CLOUDY    37  35  92 W17       29.73R FOG     WCI  27
$$



USA.gov is the U.S. government's official web portal to all federal, state and local government web resources and services.